Weather reports worldwide

Advertisment
Benson, United Kingdom (3658): temperature & dewpoint: 19.09.2018 22:00:00 - 25.09.2018 22:00:00 (BST)Benson, United Kingdom (3658): temperature -20cm & temperature -100cm: 19.09.2018 22:00:00 - 25.09.2018 22:00:00 (BST)Benson, United Kingdom (3658): wind speed & gusts: 19.09.2018 22:00:00 - 25.09.2018 22:00:00 (BST)Benson, United Kingdom (3658): wind direction: 19.09.2018 22:00:00 - 25.09.2018 22:00:00 (BST)Benson, United Kingdom (3658): reduced air pressure: 19.09.2018 22:00:00 - 25.09.2018 22:00:00 (BST)Benson, United Kingdom (3658): visibility: 19.09.2018 22:00:00 - 25.09.2018 22:00:00 (BST)Benson, United Kingdom (3658): precipitation: 19.09.2018 22:00:00 - 25.09.2018 22:00:00 (BST)
Date & Time tt [°C] td [°C] tt -20cm [°C] tt -100cm [°C] ff [km/h] ff [kn] fx [km/h] fx [kn] dd ppp [hPa] vv [km] rr [mm]
25.09.2018 22:00:00 7,4 4,6 - - 11 6 - - S 1035,9 10 0,0
25.09.2018 21:00:00 7,6 4,2 - - 11 6 - - S 1035,7 50 0,0
25.09.2018 20:00:00 9,7 5,3 - - 13 7 - - S 1035,4 10 0,0
25.09.2018 19:00:00 12,0 5,9 - - 13 7 - - S 1035,5 10 0,0
25.09.2018 18:00:00 15,2 5,7 - - 18 10 - - S 1035,4 10 0,0
25.09.2018 17:00:00 15,9 5,7 - - 21 11 - - S 1035,5 10 0,0
25.09.2018 16:00:00 15,3 5,6 - - 18 10 - - S 1035,9 10 0,0
25.09.2018 15:00:00 16,7 5,9 - - 18 10 - - SSW 1036,4 10 0,0
25.09.2018 14:00:00 16,4 6,3 - - 24 13 - - S 1037,3 10 0,0
25.09.2018 13:00:00 15,6 5,1 - - 18 10 - - S 1038,2 10 0,0
25.09.2018 12:00:00 15,1 7,0 - - 16 9 - - S 1038,7 10 0,0
25.09.2018 11:00:00 13,4 6,9 - - 8 4 - - SSW 1039,0 30 0,0
25.09.2018 10:00:00 10,4 6,4 13,7 15,5 2 1 - - E 1039,2 10 0,0
25.09.2018 09:00:00 5,6 5,1 - - 2 1 - - N 1039,2 10 0,0
25.09.2018 08:00:00 1,2 0,9 - - 4 2 - - N 1039,0 10 0,0
25.09.2018 07:00:00 -0,5 -0,9 - - 5 3 - - S 1038,5 12 0,0
25.09.2018 06:00:00 0,3 -0,2 - - 0 0 - - N 1039,0 14 0,0
25.09.2018 05:00:00 0,5 0,1 - - 2 1 - - WSW 1039,2 10 0,0
25.09.2018 04:00:00 0,3 -0,3 - - 4 2 - - NE 1039,3 21 0,0
25.09.2018 03:00:00 0,4 -0,3 - - 2 1 - - S 1039,2 28 0,0
25.09.2018 02:00:00 0,9 -0,1 - - 2 1 - - E 1039,3 25 0,0
25.09.2018 01:00:00 1,6 0,4 - - 2 1 - - ESE 1039,5 26 0,0
25.09.2018 00:00:00 2,1 1,0 - - 2 1 - - SE 1039,7 10 0,0
24.09.2018 23:00:00 3,0 2,1 - - 5 3 - - ENE 1039,4 10 0,0
24.09.2018 22:00:00 3,3 1,8 - - 4 2 - - E 1039,1 10 0,0
24.09.2018 21:00:00 5,4 3,3 - - 4 2 - - SW 1038,8 10 0,0
24.09.2018 20:00:00 6,2 3,4 - - 2 1 - - ESE 1038,6 45 0,0
24.09.2018 19:00:00 10,7 4,3 - - 5 3 - - N 1038,1 10 0,0
24.09.2018 18:00:00 13,9 2,9 - - 8 4 - - N 1037,7 45 0,0
24.09.2018 17:00:00 14,7 1,1 - - 13 7 - - N 1037,6 40 0,0
24.09.2018 16:00:00 14,9 0,9 - - 11 6 - - NNW 1038,1 10 0,0
24.09.2018 15:00:00 14,6 1,3 - - 11 6 - - N 1038,4 10 0,0
24.09.2018 14:00:00 14,2 2,7 - - 13 7 - - N 1038,5 10 0,0
24.09.2018 13:00:00 13,3 4,3 - - 15 8 - - NNW 1038,6 10 0,0
24.09.2018 12:00:00 12,8 4,1 - - 13 7 - - NW 1038,9 10 0,0
24.09.2018 11:00:00 12,2 6,0 - - 15 8 - - NNW 1038,9 10 0,0
24.09.2018 10:00:00 9,2 6,8 14,2 15,7 5 3 - - W 1038,5 10 0,0
24.09.2018 09:00:00 6,6 6,3 - - 2 1 - - NW 1037,9 10 0,0
24.09.2018 08:00:00 1,9 1,8 - - 2 1 - - SE 1037,3 10 0,0
24.09.2018 07:00:00 0,1 -0,1 - - 2 1 - - ESE 1036,7 25 0,0
24.09.2018 06:00:00 0,3 0,0 - - 4 2 - - SE 1036,3 24 0,0
24.09.2018 05:00:00 2,1 2,0 - - 9 5 - - S 1035,9 10 0,0
24.09.2018 04:00:00 1,7 1,5 - - 5 3 - - SSW 1035,2 10 0,0
24.09.2018 03:00:00 1,5 1,2 - - 2 1 - - ENE 1035,0 10 0,0
24.09.2018 02:00:00 0,7 0,2 - - 4 2 - - ESE 1034,5 10 0,0
24.09.2018 01:00:00 2,7 2,5 - - 5 3 - - SSW 1033,5 10 0,0
24.09.2018 00:00:00 1,6 1,1 - - 2 1 - - SSE 1032,2 10 0,0
23.09.2018 23:00:00 3,1 2,6 - - 2 1 - - SE 1031,3 28 0,0
23.09.2018 22:00:00 3,0 1,4 - - 4 2 - - SSE 1030,4 10 0,0
23.09.2018 21:00:00 5,7 4,3 - - 5 3 - - SSW 1029,1 10 0,0
23.09.2018 20:00:00 9,4 5,1 - - 8 4 - - WNW 1027,5 10 0,0
23.09.2018 19:00:00 10,4 5,5 - - 8 4 - - NW 1025,7 10 0,0
23.09.2018 18:00:00 10,6 5,5 - - 22 12 - - N 1024,4 10 0,2
23.09.2018 17:00:00 12,7 3,7 - - 21 11 - - NNW 1023,2 50 0,0
23.09.2018 16:00:00 13,3 5,2 - - 22 12 - - NW 1022,2 10 0,0
23.09.2018 15:00:00 13,3 5,6 - - 22 12 - - NW 1020,9 40 0,0
23.09.2018 14:00:00 12,1 7,3 - - 18 10 - - NW 1020,3 45 0,0
23.09.2018 13:00:00 10,4 7,4 - - 16 9 - - NW 1019,5 10 0,0
23.09.2018 12:00:00 9,0 6,7 - - 16 9 - - N 1018,5 10 0,2
23.09.2018 11:00:00 8,2 6,8 - - 18 10 - - N 1017,8 10 1,4
23.09.2018 10:00:00 8,8 7,8 15,2 16,0 18 10 - - NNW 1017,2 7 2,4
23.09.2018 09:00:00 9,0 8,7 - - 13 7 - - NNW 1015,7 5 3,2
23.09.2018 08:00:00 8,8 8,3 - - 13 7 - - N 1014,2 5 2,4
23.09.2018 07:00:00 8,9 8,5 - - 15 8 - - N 1014,1 4,5 0,4
23.09.2018 06:00:00 9,3 8,7 - - 11 6 - - N 1014,3 8 0,2
23.09.2018 05:00:00 9,6 8,8 - - 16 9 - - NNE 1014,1 10 0,0
23.09.2018 04:00:00 10,0 9,3 - - 15 8 - - NNE 1014,1 5 0,0
23.09.2018 03:00:00 10,2 9,4 - - 16 9 - - NNE 1014,3 10 0,0
23.09.2018 02:00:00 10,2 9,7 - - 15 8 - - NNE 1014,5 3,2 0,0
23.09.2018 01:00:00 10,4 9,8 - - 13 7 - - NNE 1014,2 8 0,0
23.09.2018 00:00:00 10,4 9,7 - - 11 6 - - NNE 1014,3 13 0,0
22.09.2018 23:00:00 10,5 9,6 - - 11 6 - - NNE 1014,1 19 0,0
22.09.2018 22:00:00 10,5 9,6 - - 11 6 - - ENE 1013,9 10 0,0
22.09.2018 21:00:00 10,4 9,6 - - 11 6 - - ENE 1014,2 10 0,0
22.09.2018 20:00:00 10,3 9,7 - - 13 7 - - ENE 1014,3 8 0,0
22.09.2018 19:00:00 10,3 9,3 - - 13 7 - - E 1014,6 10 0,8
22.09.2018 18:00:00 10,1 9,3 - - 11 6 - - E 1015,1 6 1,0
22.09.2018 17:00:00 10,1 9,0 - - 13 7 - - SE 1015,9 10 0,8
22.09.2018 16:00:00 10,8 8,9 - - 15 8 - - SE 1016,9 8 0,6
22.09.2018 15:00:00 11,1 8,6 - - 8 4 - - SE 1017,6 10 1,4
22.09.2018 14:00:00 11,6 8,8 - - 5 3 - - S 1018,5 10 0,2
22.09.2018 13:00:00 11,6 8,9 - - 8 4 - - SSW 1019,3 10 1,2
22.09.2018 12:00:00 11,3 9,0 - - 11 6 - - SSW 1019,6 18 0,6
22.09.2018 11:00:00 11,8 9,8 - - 13 7 - - SW 1020,0 10 0,2
22.09.2018 10:00:00 11,9 9,6 15,7 16,0 15 8 - - SSW 1019,5 10 0,0
22.09.2018 09:00:00 11,1 9,5 - - 13 7 - - SSW 1019,2 10 0,0
22.09.2018 08:00:00 10,7 9,4 - - 9 5 - - SSW 1019,0 10 0,4
22.09.2018 07:00:00 10,5 8,9 - - 9 5 - - SSW 1019,5 10 0,0
22.09.2018 06:00:00 10,6 8,9 - - 13 7 - - S 1018,9 35 0,0
22.09.2018 05:00:00 10,6 8,4 - - 8 4 - - SSW 1018,6 35 0,0
22.09.2018 04:00:00 10,5 8,7 - - 13 7 - - SW 1019,1 10 0,0
22.09.2018 03:00:00 10,4 8,3 - - 11 6 - - SSW 1018,7 10 0,0
22.09.2018 02:00:00 10,3 8,3 - - 16 9 - - SSW 1018,4 10 0,0
22.09.2018 01:00:00 9,9 7,7 - - 15 8 - - SSW 1018,6 10 0,0
22.09.2018 00:00:00 10,3 7,8 - - 11 6 - - SSW 1018,6 35 0,0
21.09.2018 23:00:00 10,4 7,0 - - 8 4 - - SSW 1017,8 10 0,0
21.09.2018 22:00:00 11,3 7,6 - - 15 8 - - SW 1017,1 10 0,0
21.09.2018 21:00:00 11,5 7,6 - - 16 9 - - SW 1016,6 10 0,0
21.09.2018 20:00:00 11,6 6,2 - - 13 7 - - SSW 1015,6 10 0,0
21.09.2018 19:00:00 14,1 4,7 - - 18 10 - - WSW 1014,4 10 0,0
21.09.2018 18:00:00 15,6 4,6 - - 24 13 50 27 W 1012,9 10 0,0
21.09.2018 17:00:00 16,2 5,7 - - 35 19 57 31 W 1011,9 10 0,0
21.09.2018 16:00:00 16,4 7,9 - - 31 17 63 34 WSW 1011,0 10 0,0
21.09.2018 15:00:00 14,8 7,6 - - 39 21 61 33 WSW 1010,4 30 0,0
21.09.2018 14:00:00 14,6 7,7 - - 41 22 67 36 WSW 1010,1 10 0,2
21.09.2018 13:00:00 15,5 8,1 - - 29 16 61 33 WSW 1008,9 10 0,0
21.09.2018 12:00:00 14,5 5,2 - - 34 18 59 32 WSW 1008,5 10 0,0
21.09.2018 11:00:00 13,9 5,6 - - 29 16 54 29 WSW 1008,4 10 0,0
21.09.2018 10:00:00 12,0 6,0 16,7 16,0 28 15 46 25 WSW 1008,0 10 0,0
21.09.2018 09:00:00 10,8 5,5 - - 18 10 - - W 1007,1 10 0,0
21.09.2018 08:00:00 9,6 5,6 - - 18 10 - - WSW 1005,9 10 0,0
21.09.2018 07:00:00 9,6 5,5 - - 18 10 - - W 1004,7 10 0,0
21.09.2018 06:00:00 10,3 6,8 - - 22 12 46 25 W 1003,3 10 0,0
21.09.2018 05:00:00 11,7 7,2 - - 26 14 50 27 W 1001,8 50 0,0
21.09.2018 04:00:00 12,4 8,8 - - 26 14 50 27 WSW 999,9 10 0,0
21.09.2018 03:00:00 13,6 9,5 - - 31 17 50 27 WSW 998,6 10 0,0
21.09.2018 02:00:00 15,3 12,2 - - 34 18 63 34 WSW 997,5 10 1,0
21.09.2018 01:00:00 16,9 16,5 - - 39 21 67 36 SSW 996,3 6 10,4
21.09.2018 00:00:00 16,6 16,0 - - 50 27 74 40 S 996,4 1,7 3,0
20.09.2018 23:00:00 17,2 15,7 - - 44 24 74 40 S 999,0 5 1,2
20.09.2018 22:00:00 18,0 15,6 - - 34 18 57 31 S 1000,9 10 0,0
20.09.2018 21:00:00 18,8 15,1 - - 35 19 59 32 S 1002,2 10 0,0
20.09.2018 20:00:00 18,7 14,9 - - 29 16 54 29 S 1003,4 10 0,0
20.09.2018 19:00:00 18,9 14,5 - - 29 16 59 32 S 1004,3 10 0,0
20.09.2018 18:00:00 19,3 14,1 - - 35 19 55 30 S 1005,4 10 0,0
20.09.2018 17:00:00 20,0 14,4 - - 34 18 67 36 SSW 1006,4 10 0,0
20.09.2018 16:00:00 19,9 14,2 - - 31 17 55 30 S 1007,1 10 0,0
20.09.2018 15:00:00 19,3 14,3 - - 28 15 52 28 S 1008,2 10 0,0
20.09.2018 14:00:00 18,6 14,8 - - 35 19 54 29 S 1009,1 10 0,0
20.09.2018 13:00:00 18,5 15,3 - - 29 16 50 27 S 1009,4 10 0,0
20.09.2018 12:00:00 19,4 17,4 - - 24 13 - - S 1010,0 10 0,2
20.09.2018 11:00:00 17,1 16,2 - - 16 9 - - S 1011,0 10 0,8
20.09.2018 10:00:00 17,1 15,5 16,7 16,0 21 11 - - S 1011,1 10 0,0
20.09.2018 09:00:00 17,5 15,2 - - 26 14 - - S 1011,3 10 0,0
20.09.2018 08:00:00 16,9 14,9 - - 26 14 - - S 1010,9 15 0,0
20.09.2018 07:00:00 16,7 15,2 - - 24 13 - - S 1011,0 10 0,0
20.09.2018 06:00:00 16,6 15,3 - - 21 11 - - S 1011,3 22 0,0
20.09.2018 05:00:00 16,5 15,7 - - 21 11 - - SSW 1011,6 15 0,8
20.09.2018 04:00:00 16,6 16,0 - - 21 11 - - S 1011,7 19 0,4
20.09.2018 03:00:00 15,0 14,8 - - 5 3 - - SSW 1012,3 3,5 1,2
20.09.2018 02:00:00 14,8 14,4 - - 13 7 - - SSW 1012,8 3,6 0,2
20.09.2018 01:00:00 14,8 14,5 - - 15 8 - - SSW 1013,3 11 0,2
20.09.2018 00:00:00 15,1 13,9 - - 18 10 - - SSW 1013,8 8 0,0
19.09.2018 23:00:00 15,2 14,1 - - 18 10 - - SSW 1014,0 10 0,0
19.09.2018 22:00:00 15,0 14,1 - - 13 7 - - SSW 1014,2 8 0,0

tt = temperature
td = dewpoint
tt -20cm = temperature -20cm
tt -100cm = temperature -100cm
ff = wind speed
fx = gusts
dd = wind direction
ppp = reduced air pressure
vv = visibility
rr = precipitation

Next stations